FENGYUN 1C DEB, 32241

Orbit data source: Space-Track

FENGYUN 1C DEB, 32241 is space debris in SSO originally from a launch on Mon, 10 May 1999 UTC launched from the Taiyaun Space Center, China (TSC). Fengyun 1C debris stems from the Chinese weather satellite Fengyun-1C, which was intentionally destroyed by a Chinese anti-satellite missile in 2007. This event dramatically increased the amount of space debris, with thousands of trackable fragments posing hazards to satellites and human spaceflight. The Fengyun 1C debris cloud has become a focal point in discussions about space sustainability and the need for international regulations to prevent the creation of new debris.

Loading next visibility...
Identifier
32241, 1999-025CWP
Orbit
SSO
Country
Flag of CNCN / PRC
Related business
Manufacturer
Unknown
Mission
Spacecraft
Bus & Motor
Unknown
Mass
Unknown
Launch date (UTC)
1999-05-10 (27 years ago)
Launch vehicle
Unknown
Launch site
Taiyaun Space Center, China (TSC)
Object type
Payload
Rocket body
Debris
Shape & HBR
Unknown shape, 0.1 m
Radar Cross Section
Small (<0.1 m²)

Expand to show TLE details & history
Last TLE update: 1 day ago

TLE from 1 day ago
0 FENGYUN 1C DEB
1 32241U 99025CWP 26261.85496196  .00002204  00000-0  77039-3 0  9999
2 32241  99.0569 307.7911 0143906 132.1130 229.2390 14.30620850978262
Epoch: 2026-09-18T20:31Z
TLE epoch observation values (Epoch: 2026-09-18T20:31:08.713Z)
Latitude
0.00005°
Longitude
2.23292°
Altitude
860.775 km
Speed
7.387 km/s
True Right ascension
20h 31m 09s
True Declination
0° 00' 00"
Sunlit
Object was in full shadow at epoch
Visualization orbit readout
Latitude
Unknown
Longitude
Unknown
Altitude
Unknown
Speed
Unknown
Apparent Right ascension
Unknown
Apparent Declination
Unknown
Sunlit
N/A
Visualization observer readout
Local Sidereal Time
17:31:09
Azimuth
Unknown
Elevation
Unknown
Doppler factor
Unknown
Orbital elements
Apogee altitude
889.925 km
Perigee altitude
683.709 km
Semi-major axis
7,164.954 km
Eccentricity
0.01439
Inclination
99.0569°
RAAN
307.7911°
Arg. of periapsis
132.113°
True anomaly
228.00455°
Mean anomaly
229.239°
Eccentric anomaly
228.62032°
Mean motion
3.57868 °/min
Orbital period
100.6 mins
BSTAR
0.00077039
Loading maneuver chart data...
Computing Atmospheric mass density...

Documentation

Showing up to 5 results
|